Flag for Norway Weather past 2 weeks in Langesund, Norway

Now
44 °F

Quite cool.


Feels Like: 42 °F
Forecast: 30 / 51 °F
Wind: 3 mph from Northwest

Location: Jomfruland Fyr

Current Time: Apr 27, 2015 at 12:43:21 AM

Latest Report: Apr 26, 2015 at 11:00 PM


Visibility: N/A

Pressure: 29.64 "Hg

Humidity: 54%

Dew point: 28 °F

Location of LangesundLocation

Historic Weather in Langesund — Graph

°F

Langesund temperature yesterday

Maximum temperature yesterday: 50 °F (at 8:00 PM)
Minimum temperature yesterday: 38 °F (at 6:00 AM)
Average temperature yesterday: 45 °F

Past Weeks' High & Low Weather Summary

 TemperatureHumidityPressure
High67 °F (Apr 20, 6:00 PM)96% (Apr 11, 11:00 PM)30.37 "Hg (Apr 11, 11:00 PM)
Low35 °F (Apr 14, 7:00 AM)17% (Apr 20, 6:00 PM)29.38 "Hg (Apr 25, 7:00 PM)
Average47 °F62%29.92 "Hg
* Reported Apr 11 11:00 PM — Apr 26 11:00 PM, Langesund, Weather by CustomWeather, © 2015

Note: Actual official high and low records may vary slightly from our data, if they occured in-between our weather recording intervals... More about our weather records

Advertising

Langesund weather history for previous 24 hours

 ConditionsComfort  
Time TempWeatherWind HumidityBarometerVisibility
11:00 PM
Sun, Apr 26
44 °FQuite cool.3 mph54%29.64 "HgN/A
10:00 PM45 °FCool.5 mph53%29.63 "HgN/A
9:00 PM47 °FCool.6 mph45%29.62 "HgN/A
8:00 PM50 °FCool.6 mph38%29.60 "HgN/A
7:00 PM50 °FCool.5 mph52%29.59 "HgN/A
6:00 PM47 °FCool.12 mph76%29.59 "HgN/A
5:00 PM46 °FCool.12 mph77%29.59 "HgN/A
4:00 PM47 °FCool.13 mph72%29.58 "HgN/A
3:00 PM47 °FCool.13 mph72%29.59 "HgN/A
2:00 PM48 °FCool.12 mph69%29.59 "HgN/A
1:00 PM47 °FCool.12 mph71%29.58 "HgN/A
12:00 PM47 °FCool.10 mph66%29.58 "HgN/A
11:00 AM47 °FCool.7 mph62%29.58 "HgN/A
10:00 AM46 °FCool.6 mph62%29.58 "HgN/A
9:00 AM43 °FQuite cool.7 mph70%29.57 "HgN/A
8:00 AM42 °FQuite cool.7 mph76%29.57 "HgN/A
7:00 AM40 °FChilly.6 mph81%29.56 "HgN/A
6:00 AM38 °FChilly.6 mph85%29.55 "HgN/A
5:00 AM39 °FChilly.8 mph83%29.54 "HgN/A
4:00 AM40 °FQuite cool.10 mph81%29.50 "HgN/A
3:00 AM40 °FQuite cool.9 mph79%29.50 "HgN/A
2:00 AM42 °FQuite cool.8 mph76%29.47 "HgN/A
1:00 AM42 °FQuite cool.7 mph68%29.47 "HgN/A
12:00 AM45 °FCool.10 mph76%29.44 "HgN/A
Weather by CustomWeather, © 2015

See weather overviewHow to use our weather pages